SCP
-0 -0 -0 0 0 0 0 0 0 0 0 0 0 0 0 0 0 0 0 0 0 0 0 0 0 0 0
-0 0 0 0 0 0 0 0 0 0 0 0 0 0 0 0 0 0 0 0 0 0 0 0 0 0 0
0 0 0 0 0 0 0 0 0 0 0 0 0 0 0 0 0 0 0 0 0 0 0 0 0 0 0
0 0 0 0 0 0 0 0 0 0 0 0 0 0 0 0 0 0 0 0 0 0 0 0 0 0 0
0 0 0 0 0 0 0 0 0 0 0 0 0 0 0 0 0 0 0 0 0 0 0 0 0 0 0
0 0 0 0 0 0 0 0 0 0 0 0 0 0 0 0 0 0 0 0 0 0 0 0 0 0 0
0 0 0 0 0 0 0 0 0 0 0 0 0 0 0 0 0 0 0 0 0 0 0 0 0 0 0
0 0 0 0 0 0 0 0 0 0 0 0 0 0 0 0 0 0 0 0 0 0 0 0 0 0 0
0 0 0 0 0 0 0 0 0 0 0 0 0 0 0 0 0 0 0 0 0 0 0 0 0 0 0
0 0 0 0 0 0 0 0 0 0 0 0 0 0 0 0 0 0 0 0 0 0 0 0 0 0 0
0 0 0 0 0 0 0 0 0 0 0 0 0 0 0 0 0 0 0 0 0 0 0 0 0 0 0
0 0 0 0 0 0 0 0 0 0 0 0 0 0 0 0 0 0 0 0 0 0 0 0 0 0 0
0 0 0 0 0 0 0 0 0 0 0 0 0 0 0 0 0 0 0 0 0 0 0 0 0 0 0
0 0 0 0 0 0 0 0 0 0 0 0 0 0 0 0 0 0 0 0 0 0 0 0 0 0 0
0 0 0 0 0 0 0 0 0 0 0 0 0 0 0 0 0 0 0 0 0 0 0 0 0 0 0
0 0 0 0 0 0 0 0 0 0 0 0 0 0 0 0 0 0 0 0 0 0 0 0 0 0 0
Wind_Speed_500mb
8 6 4 2 1 1 0 2 4 5 6 6 5 4 4 4 4 5 5 6 8 10 11 13 15 16 15
6 3 3 3 3 3 4 5 6 8 9 9 9 9 9 9 9 9 9 11 13 15 16 17 17 16 15
3 1 2 3 6 7 8 9 10 11 13 12 13 13 13 13 12 12 14 16 18 18 17 18 17 15 17
1 1 3 3 1 4 8 10 10 14 17 16 17 16 15 16 16 15 16 17 19 15 16 18 16 17 17
5 7 7 7 6 5 3 4 5 9 13 14 13 13 14 17 15 16 18 19 18 21 20 18 18 21 16
15 16 15 14 11 9 10 10 8 8 10 12 14 13 15 16 18 20 23 24 23 22 21 20 21 21 24
22 22 22 21 19 17 16 15 17 15 15 17 17 20 17 20 21 23 26 27 26 25 24 22 22 24 25
20 20 21 23 24 26 24 22 22 23 23 25 23 27 25 24 24 25 28 26 29 27 28 27 27 26 27
18 19 19 21 23 27 31 29 32 29 30 32 35 33 29 27 29 31 31 31 31 32 32 30 27 25 27
25 24 23 24 24 26 30 33 36 36 38 40 42 38 37 36 33 31 29 30 34 27 29 30 31 30 32
29 30 28 28 29 31 34 37 38 38 40 44 44 44 40 38 37 36 35 36 40 37 36 36 34 35 37
30 30 30 31 34 37 39 39 37 35 34 34 34 34 32 32 35 38 39 35 38 37 38 34 26 36 37
28 27 28 30 33 35 33 30 27 24 23 21 22 22 26 31 30 29 36 33 41 41 41 19 18 32 25
24 23 22 22 24 24 17 14 9 10 11 16 20 24 24 27 28 30 34 40 43 39 31 22 8 5 10
18 17 16 14 9 2 1 2 7 12 14 15 19 22 26 31 33 38 39 28 23 22 16 12 6 4 4
13 13 11 9 6 5 6 9 12 15 19 22 25 28 27 26 25 23 19 16 15 15 13 12 18 20 5
Wind_Direction_500mb
145 143 141 141 120 83 162 240 225 235 250 284 288 300 307 314 313 323 326 325 323 323 319 316 322 325 327
157 161 206 228 239 255 261 261 266 272 272 277 290 292 299 304 304 298 303 304 310 315 312 309 313 318 331
159 213 333 287 257 261 264 271 278 278 281 281 280 283 283 285 287 296 302 305 305 304 312 312 313 318 314
178 324 347 336 338 333 279 271 277 281 279 278 280 283 286 280 281 291 299 306 313 305 308 318 320 318 318
261 279 287 301 305 297 318 15 26 355 289 280 288 295 301 295 290 291 303 299 301 305 306 305 319 319 308
257 267 271 275 282 292 283 289 298 327 317 314 300 298 307 306 301 299 311 318 323 312 308 309 315 310 311
264 264 263 265 265 268 277 273 289 300 303 307 311 306 301 306 302 297 300 300 303 308 311 310 303 305 303
262 262 265 270 267 262 264 272 272 276 287 288 292 293 302 304 302 303 301 297 298 293 286 285 286 294 297
253 253 264 274 273 265 261 262 270 272 269 273 272 272 280 283 289 290 287 287 284 285 290 292 292 298 294
255 258 264 272 279 278 275 267 262 261 264 264 269 274 279 283 284 288 293 303 306 303 302 298 298 302 296
254 261 267 273 276 277 276 273 270 265 263 263 267 273 278 280 284 292 286 290 288 290 291 293 297 297 295
254 262 270 275 277 276 273 270 269 270 272 272 274 276 275 274 285 286 285 288 285 287 284 288 290 288 286
259 266 269 272 276 275 274 271 272 277 282 284 283 278 278 286 286 288 291 292 284 286 294 286 301 291 284
262 265 267 270 273 270 264 262 263 276 286 284 280 282 284 289 286 284 281 287 286 286 288 293 256 288 290
261 261 262 267 274 246 256 197 249 275 286 282 286 289 288 284 285 286 286 283 280 286 281 254 271 234 217
242 233 224 222 220 214 247 257 271 282 289 290 289 295 298 288 285 284 285 289 287 285 285 266 255 257 251
Wind_Speed_850mb
8 6 4 2 1 1 0 2 4 5 6 6 5 4 4 4 4 5 5 6 8 10 11 13 15 16 15
6 3 3 3 3 3 4 5 6 8 9 9 9 9 9 9 9 9 9 11 13 15 16 17 17 16 15
3 1 2 3 6 7 8 9 10 11 13 12 13 13 13 13 12 12 14 16 18 18 17 18 17 15 17
1 1 3 3 1 4 8 10 10 14 17 16 17 16 15 16 16 15 16 17 19 15 16 18 16 17 17
5 7 7 7 6 5 3 4 5 9 13 14 13 13 14 17 15 16 18 19 18 21 20 18 18 21 16
15 16 15 14 11 9 10 10 8 8 10 12 14 13 15 16 18 20 23 24 23 22 21 20 21 21 24
22 22 22 21 19 17 16 15 17 15 15 17 17 20 17 20 21 23 26 27 26 25 24 22 22 24 25
20 20 21 23 24 26 24 22 22 23 23 25 23 27 25 24 24 25 28 26 29 27 28 27 27 26 27
18 19 19 21 23 27 31 29 32 29 30 32 35 33 29 27 29 31 31 31 31 32 32 30 27 25 27
25 24 23 24 24 26 30 33 36 36 38 40 42 38 37 36 33 31 29 30 34 27 29 30 31 30 32
29 30 28 28 29 31 34 37 38 38 40 44 44 44 40 38 37 36 35 36 40 37 36 36 34 35 37
30 30 30 31 34 37 39 39 37 35 34 34 34 34 32 32 35 38 39 35 38 37 38 34 26 36 37
28 27 28 30 33 35 33 30 27 24 23 21 22 22 26 31 30 29 36 33 41 41 41 19 18 32 25
24 23 22 22 24 24 17 14 9 10 11 16 20 24 24 27 28 30 34 40 43 39 31 22 8 5 10
18 17 16 14 9 2 1 2 7 12 14 15 19 22 26 31 33 38 39 28 23 22 16 12 6 4 4
13 13 11 9 6 5 6 9 12 15 19 22 25 28 27 26 25 23 19 16 15 15 13 12 18 20 5
Wind_Direction_850mb
145 143 141 141 120 83 162 240 225 235 250 284 288 300 307 314 313 323 326 325 323 323 319 316 322 325 327
157 161 206 228 239 255 261 261 266 272 272 277 290 292 299 304 304 298 303 304 310 315 312 309 313 318 331
159 213 333 287 257 261 264 271 278 278 281 281 280 283 283 285 287 296 302 305 305 304 312 312 313 318 314
178 324 347 336 338 333 279 271 277 281 279 278 280 283 286 280 281 291 299 306 313 305 308 318 320 318 318
261 279 287 301 305 297 318 15 26 355 289 280 288 295 301 295 290 291 303 299 301 305 306 305 319 319 308
257 267 271 275 282 292 283 289 298 327 317 314 300 298 307 306 301 299 311 318 323 312 308 309 315 310 311
264 264 263 265 265 268 277 273 289 300 303 307 311 306 301 306 302 297 300 300 303 308 311 310 303 305 303
262 262 265 270 267 262 264 272 272 276 287 288 292 293 302 304 302 303 301 297 298 293 286 285 286 294 297
253 253 264 274 273 265 261 262 270 272 269 273 272 272 280 283 289 290 287 287 284 285 290 292 292 298 294
255 258 264 272 279 278 275 267 262 261 264 264 269 274 279 283 284 288 293 303 306 303 302 298 298 302 296
254 261 267 273 276 277 276 273 270 265 263 263 267 273 278 280 284 292 286 290 288 290 291 293 297 297 295
254 262 270 275 277 276 273 270 269 270 272 272 274 276 275 274 285 286 285 288 285 287 284 288 290 288 286
259 266 269 272 276 275 274 271 272 277 282 284 283 278 278 286 286 288 291 292 284 286 294 286 301 291 284
262 265 267 270 273 270 264 262 263 276 286 284 280 282 284 289 286 284 281 287 286 286 288 293 256 288 290
261 261 262 267 274 246 256 197 249 275 286 282 286 289 288 284 285 286 286 283 280 286 281 254 271 234 217
242 233 224 222 220 214 247 257 271 282 289 290 289 295 298 288 285 284 285 289 287 285 285 266 255 257 251